Hourly Data Report for November 28, 2019

PILGER
SASKATCHEWAN
Current Station Operator: ECCC - MSC

52°25'00.000" N
105°09'00.000" W
552.00 m
4056121
71655
PUN

Download Data

Hourly Data (November 2019)
Hourly Data Report for November 28, 2019
TIME
LST
Temp Definition
°C
Dew Point Definition
°C
Rel Hum Definition
%
Precip. Amount Definition
mm

Wind Dir Definition
10's deg

Wind Spd Definition
km/h
Visibility Definition
km
Stn Press Definition
kPa
Hmdx Definition


Wind Chill Definition


Weather Definition


00:00 -7.9 -9.1 91 0.0 14 8   96.50   -12 LegendNANA
01:00 -8.1 -9.0 94 0.0 12 13   96.47   -14 LegendNANA
02:00 -7.6 -8.4 94 0.0 10 9   96.43   -12 LegendNANA
03:00 -8.0 -8.9 93 0.0 10 12   96.43   -13 LegendNANA
04:00 -10.6 -11.7 92 0.0 9 10   96.47   -16 LegendNANA
05:00 -13.1 -14.7 88 0.0 8 8   96.46   -18 LegendNANA
06:00 -12.7 -14.0 90 0.0 8 9   96.44   -18 LegendNANA
07:00 -12.2 -13.3 91 0.0 7 8   96.43   -17 LegendNANA
08:00 -13.8 -15.1 90 0.0 6 9   96.44   -19 LegendNANA
09:00 -10.3 -11.5 91 0.0 10 13   96.44   -17 LegendNANA
10:00 -9.9 -11.3 90 0.0 10 20   96.37   -18 LegendNANA
11:00 -9.2 -10.7 89 0.0 11 29   96.36   -18 LegendNANA
12:00 -8.5 -10.3 87 0.0 12 23   96.40   -17 LegendNANA
13:00 -7.8 -9.9 85 0.0 12 28   96.32   -16 LegendNANA
14:00 -7.6 -9.8 84 0.0 11 25   96.23   -16 LegendNANA
15:00 -7.7 -10.0 84 0.0 11 24   96.17   -16 LegendNANA
16:00 -7.5 -9.9 83 0.0 10 22   96.09   -15 LegendNANA
17:00 -7.4 -9.8 83 0.0 10 22   96.08   -15 LegendNANA
18:00 -7.1 -9.8 81 0.0 9 22   96.05   -15 LegendNANA
19:00 -7.1 -9.4 84 0.0 9 18   96.02   -14 LegendNANA
20:00 -7.1 -8.9 87 0.0 10 26   95.91   -15 LegendNANA
21:00 -7.1 -9.1 85 0.0 10 27   95.89   -15 LegendNANA
22:00 -7.2 -9.5 84 0.0 11 28   95.84   -16 LegendNANA
23:00 -7.5 -10.6 79 0.0 11 32   95.81   -17 LegendNANA

Notes on Data Quality.

Legend

  • E = Estimated
  • M = Missing
  • NA = Not Available*
  • [empty] = Indicates an unobserved value
Date modified: